User: anonymous   Login
Location: South Tamworth Observatory
(43.8246°N, 71.3026°W)
Time: 10:29:57
(UTC-04:00)
Language:

Cosmos 1844 - Orbit

View from above orbital plane
View from above orbital plane
View from above satellite
View from above satellite

Ground track
Ground track

The orbit data is extracted from the following two-line orbital elements,

1 17973U 87041A   16146.82889449 -.00000350  00000-0 -15760-3 0  9999
2 17973  70.8980   9.9353 0031626 342.5559  17.4473 14.14026426498389
Epoch (UTC): 25 May 2016 19:53:36
Eccentricity: 0.0031626
inclination: 70.8980°
perigee height: 823 km
apogee height: 868 km
right ascension of ascending node: 9.9353°
argument of perigee: 342.5559°
revolutions per day: 14.14026426
mean anomaly at epoch: 17.4473°
orbit number at epoch: 49838

The dashed part of the orbit path shows where the satellite is in the earth's shadow,  

DLR